User: anonymous   Login
Location: Niverville
(49.6028°N, 97.0419°W)
Time: 00:09:47
(UTC-06:00)
Language:

BREEZE-M DEB (TANK) - Orbit

View from above orbital plane
View from above orbital plane
View from above satellite
View from above satellite

Ground track
Ground track

The orbit data is extracted from the following two-line orbital elements,

1 33374U 08044B   17052.53033023  .00000705  00000-0  21667-3 0  9997
2 33374  49.5082   5.0965 5444120  15.0092 356.2013  4.86740924148379
Epoch (UTC): 21 February 2017 12:43:40
Eccentricity: 0.5444120
inclination: 49.5082°
perigee height: 322 km
apogee height: 16336 km
right ascension of ascending node: 5.0965°
argument of perigee: 15.0092°
revolutions per day: 4.86740924
mean anomaly at epoch: 356.2013°
orbit number at epoch: 14837

The dashed part of the orbit path shows where the satellite is in the earth's shadow,  

DLR